Regional Weather Roundup
Issued by NWS Kansas City/Pleasant Hill, MO

Home | Current Version | Previous Version | Graphics & Text | Print | Product List | Glossary Off
Versions: 1 2 3 4 5 6 7 8 9 10 11 12 13 14 15 16 17 18 19 20 21 22 23 24 25 26 27 28 29 30 31 32 33 34 35 36 37 38 39 40 41 42 43 44 45 46 47 48 49 50

000
ASUS43 KEAX 291510
RWREAX

WEATHER ROUNDUP FOR EASTERN KANSAS AND NORTHWEST MISSOURI
NATIONAL WEATHER SERVICE KANSAS CITY/PLEASANT HILL MO
1000 AM CDT SUN MAY 29 2016

KSZ040-057-103>105-MOZ028-029-037-043-291600-
...KANSAS CITY METROPOLITAN AREA...

CITY           SKY/WX    TMP DP  RH WIND       PRES   REMARKS
K.C. INTL      MOSUNNY   74  62  66 VRB6      30.12R
K.C. DOWNTOWN  SUNNY     78  60  53 W7        30.10S
LEES SUMMIT    SUNNY     77  63  61 W7        30.12R
OLATHE - IXD   SUNNY     78  61  55 SW9       30.12S
OLATHE - OJC   SUNNY     77  60  55 SW8       30.12R
LAWRENCE       SUNNY     77  65  66 N5        30.11R

$$

MOZ001>008-011>017-020>025-030>033-038>040-044>046-053-054-291600-
...NORTHERN AND CENTRAL MISSOURI...

CITY           SKY/WX    TMP DP  RH WIND       PRES   REMARKS
ST. JOSEPH     SUNNY     73  62  68 S6        30.11R
MOSBY          SUNNY     73  63  68 CALM      30.11S
WARRENSBURG    SUNNY     77  63  61 SW7       30.11R
WHITEMAN AFB   SUNNY     78  65  63 W6        30.11R
CLINTON        SUNNY     77  68  73 CALM      30.13R
SEDALIA        SUNNY     79  63  57 W7        30.13R
WARSAW         NOT AVBL
CHILLICOTHE      N/A     75  64  68 VRB5      30.11S
KIRKSVILLE     SUNNY     74  59  59 W8        30.11S

$$

MOZ041-047>049-056>058-063>065-088>090-097-291600-
...EASTERN AND SOUTHERN MISSOURI...

CITY           SKY/WX    TMP DP  RH WIND       PRES   REMARKS
ST. LOUIS INTL MOSUNNY   81  62  52 NW6       30.11R
SPIRIT OF STL  SUNNY     79  65  62 W8        30.09S
COLUMBIA       SUNNY     78  63  59 W7        30.12R
JEFFERSON CITY SUNNY     78  65  63 VRB3      30.10S
ROLLA          SUNNY     75  66  73 SW7       30.12S
SPRINGFIELD    CLOUDY    77  68  73 W9        30.15S
BRANSON        CLOUDY    73  68  83 W6        30.18R
JOPLIN         CLOUDY    77  70  79 SW6       30.15S
WEST PLAINS    MOSUNNY   78  65  63 W6        30.17R

$$

IAZ060-094-KSZ022-034>040-054-083-096-NEZ052-066-093-291600-
...KANSAS...SOUTHEAST NEBRASKA AND IOWA...

CITY           SKY/WX    TMP DP  RH WIND       PRES   REMARKS
TOPEKA         SUNNY     78  61  55 CALM      30.11R
MANHATTAN      SUNNY     78  61  55 SW9       30.11S
EMPORIA        SUNNY     78  65  63 W5        30.12S
CHANUTE        MOSUNNY   78  69  73 SW6       30.13R
WICHITA        MOSUNNY   79  71  76 SW7       30.12R
OMAHA          CLOUDY    70  59  68 S6        30.10R
LINCOLN        SUNNY     71  60  68 SW3       30.10S
FALLS CITY     PTSUNNY   73  61  65 SW7       30.10R
LAMONI         SUNNY     71  61  70 W5        30.10R
DES MOINES     MOSUNNY   70  58  65 W10       30.08R

$$




USA.gov is the U.S. government's official web portal to all federal, state and local government web resources and services.